Tracking 19634 objects as of 21-May-2019
HD Live streaming from Space Station
objects crossing your sky now

COSMOS 623

Track COSMOS 623 now!
10-day predictions
COSMOS 623 is classified as:


NORAD ID: 6991
Int'l Code: 1973-104G
Perigee: 1,394.1 km
Apogee: 1,491.6 km
Inclination: 74.0 °
Period: 114.6 minutes
Semi major axis: 7813 km
RCS: 0.6745 m2 (medium)
Launch date: December 19, 1973
Source: Commonwealth of Independent States (former USSR) (CIS)
Launch site: PLESETSK MISSILE AND SPACE COMPLEX (PKMTR)
aabbcc
Your satellite tracking list
Your tracking list is empty




NASA's NSSDC Master Catalog

Two Line Element Set (TLE):
1  6991U 73104G   19141.19661250  .00000008  00000-0  14267-3 0  9997
2  6991  74.0299 235.4336 0062366  53.9208 327.4397 12.56911115 84182
Source of the keplerian elements: AFSPC